Location: Mercogliano
(40.9167°N, 14.7333°E)
Time: 03:44:07
(UTC+00:00)

X-37B - Pass Details

Date: 27 November 2020
Orbit: 383 x 391 km, 45.1° (Epoch: 22 January)

Event Time Altitude Azimuth Distance (km) Brightness Sun altitude
Rises 16:25:04 0° 214° (SW) 2,246 5.4 -9.5°
Reaches altitude 10° 16:27:23 10° 199° (SSW) 1,399 4.0 -9.9°
Maximum altitude 16:29:56 23° 145° (SE) 881 2.2 -10.3°
Enters shadow 16:31:50 14° 99° (E) 1,199 2.5 -10.7°
